CZ-4C DEB (47534 NORAD) Tracking and Keplerian Element Data

This shows tracking and keplerian element data for the satellite.

Feedback or suggestion? Click here.




ElementValue
Catalog47534
NameCZ-4C DEB
Epoch Orbit402
Epoch Day59.08171012
Epoch Year2021
RAAN71.9159
Inclination63.3968
Eccentricity0.0004117
Argument of Perigee297.4868
Mean Anonmoly62.5739
Mean Motion13.44228177
Decay Rate-9E-07
L11 47534U 21007C 21059.08171012 -.00000090 00000-0 00000+0 0 9999
L22 47534 63.3968 71.9159 0004117 297.4868 62.5739 13.44228177 4026



Live tracking and technical data element details for CZ-4C DEB (NORAD 47534). CZ-4C DEB can be tracked NOW for your location showing map with azimuth and elevation plus other details from your city location.







IsCatalogInMostPopularTable: catalog: 47534, numindb: 92
Update: records affected: 1



GetName: 47534 CZ-4C DEB

Hit Count: updated at: Sun, 28 May 2023 07:23:08 GMT